iso_date,Year,Hour,Min,DOY,POS_DOY,Lat,Lon,BP,Ts,Ta,has_bp,has_ts,has_ta,BuoyID,Buoy_Type,Buoy_Owner,Logistics,Hemisphere
2021-08-20T22:00:02Z,2021,22,0,232.9167,230.0729,83.9434,-86.4034,1005.9,3.7,4.3,yes,yes,yes,300234068768740,SVP-BA,ECCC,RCAF,North
2021-08-20T22:59:57Z,2021,23,0,232.9583,230.1146,83.9434,-86.4034,1006.2,2.6,2.2,yes,yes,yes,300234068768740,SVP-BA,ECCC,RCAF,North
2021-08-21T00:00:00Z,2021,0,0,233.0,233.0,83.9438,-86.4012,1006.2,1.5,1.1,yes,yes,yes,300234068768740,SVP-BA,ECCC,RCAF,North
2021-08-21T01:00:02Z,2021,1,0,233.0417,233.0,83.9438,-86.4012,1006.3,1.2,1.1,yes,yes,yes,300234068768740,SVP-BA,ECCC,RCAF,North
2021-08-21T01:59:57Z,2021,2,0,233.0833,233.0,83.9438,-86.4012,1006.4,1.0,0.9,yes,yes,yes,300234068768740,SVP-BA,ECCC,RCAF,North
2021-08-21T03:00:00Z,2021,3,0,233.125,233.125,83.9442,-86.3898,1006.3,0.8,0.9,yes,yes,yes,300234068768740,SVP-BA,ECCC,RCAF,North
2021-08-21T04:00:02Z,2021,4,0,233.1667,233.125,83.9442,-86.3898,1006.6,0.7,0.7,yes,yes,yes,300234068768740,SVP-BA,ECCC,RCAF,North
2021-08-21T04:59:57Z,2021,5,0,233.2083,233.125,83.9442,-86.3898,1006.7,0.6,0.6,yes,yes,yes,300234068768740,SVP-BA,ECCC,RCAF,North
2021-08-21T06:00:00Z,2021,6,0,233.25,233.25,83.9434,-86.3738,1006.8,0.6,0.6,yes,yes,yes,300234068768740,SVP-BA,ECCC,RCAF,North
2021-08-21T07:00:02Z,2021,7,0,233.2917,233.25,83.9434,-86.3738,1007.1,0.5,0.1,yes,yes,yes,300234068768740,SVP-BA,ECCC,RCAF,North
2021-08-21T07:59:57Z,2021,8,0,233.3333,233.25,83.9434,-86.3738,1007.4,0.3,-0.3,yes,yes,yes,300234068768740,SVP-BA,ECCC,RCAF,North
2021-08-21T09:00:00Z,2021,9,0,233.375,233.375,83.9426,-86.3542,1007.5,0.3,-0.1,yes,yes,yes,300234068768740,SVP-BA,ECCC,RCAF,North
2021-08-21T10:00:02Z,2021,10,0,233.4167,233.375,83.9426,-86.3542,1007.7,0.1,-0.3,yes,yes,yes,300234068768740,SVP-BA,ECCC,RCAF,North
2021-08-21T10:59:57Z,2021,11,0,233.4583,233.375,83.9426,-86.3542,1007.7,0.1,0.2,yes,yes,yes,300234068768740,SVP-BA,ECCC,RCAF,North
2021-08-21T12:00:00Z,2021,12,0,233.5,233.5,83.943,-86.339,1007.8,-0.3,-1.0,yes,yes,yes,300234068768740,SVP-BA,ECCC,RCAF,North
2021-08-21T13:00:02Z,2021,13,0,233.5417,233.5,83.943,-86.339,1008.0,-0.4,-0.4,yes,yes,yes,300234068768740,SVP-BA,ECCC,RCAF,North
2021-08-21T13:59:57Z,2021,14,0,233.5833,233.5,83.943,-86.339,1008.2,-0.1,0.5,yes,yes,yes,300234068768740,SVP-BA,ECCC,RCAF,North
2021-08-21T15:00:00Z,2021,15,0,233.625,233.625,83.9444,-86.3236,1008.3,0.1,0.5,yes,yes,yes,300234068768740,SVP-BA,ECCC,RCAF,North
2021-08-21T16:00:02Z,2021,16,0,233.6667,233.625,83.9444,-86.3236,1008.6,0.2,0.5,yes,yes,yes,300234068768740,SVP-BA,ECCC,RCAF,North
2021-08-21T16:59:57Z,2021,17,0,233.7083,233.625,83.9444,-86.3236,1008.7,0.2,0.5,yes,yes,yes,300234068768740,SVP-BA,ECCC,RCAF,North
2021-08-21T18:00:00Z,2021,18,0,233.75,233.75,83.9464,-86.2874,1009.1,0.4,0.7,yes,yes,yes,300234068768740,SVP-BA,ECCC,RCAF,North
2021-08-21T19:00:02Z,2021,19,0,233.7917,233.75,83.9464,-86.2874,1009.7,0.5,-0.6,yes,yes,yes,300234068768740,SVP-BA,ECCC,RCAF,North
2021-08-21T19:59:57Z,2021,20,0,233.8333,233.75,83.9464,-86.2874,1010.1,-0.1,-0.3,yes,yes,yes,300234068768740,SVP-BA,ECCC,RCAF,North
2021-08-21T21:00:00Z,2021,21,0,233.875,233.875,83.947,-86.2006,1010.5,-0.1,-0.1,yes,yes,yes,300234068768740,SVP-BA,ECCC,RCAF,North
2021-08-21T22:00:02Z,2021,22,0,233.9167,233.875,83.947,-86.2006,1011.0,-0.6,-0.5,yes,yes,yes,300234068768740,SVP-BA,ECCC,RCAF,North
2021-08-21T22:59:57Z,2021,23,0,233.9583,233.875,83.947,-86.2006,1011.2,-0.8,-1.1,yes,yes,yes,300234068768740,SVP-BA,ECCC,RCAF,North
2021-08-22T00:00:00Z,2021,0,0,234.0,234.0,83.9488,-86.1016,1011.3,-1.2,-1.6,yes,yes,yes,300234068768740,SVP-BA,ECCC,RCAF,North
2021-08-22T01:00:02Z,2021,1,0,234.0417,234.0,83.9488,-86.1016,1011.3,-2.0,-2.7,yes,yes,yes,300234068768740,SVP-BA,ECCC,RCAF,North
2021-08-22T01:59:57Z,2021,2,0,234.0833,234.0,83.9488,-86.1016,1011.3,-1.5,-1.3,yes,yes,yes,300234068768740,SVP-BA,ECCC,RCAF,North
2021-08-22T03:00:00Z,2021,3,0,234.125,234.125,83.9514,-86.0202,1011.5,-1.3,-1.1,yes,yes,yes,300234068768740,SVP-BA,ECCC,RCAF,North
2021-08-22T04:00:02Z,2021,4,0,234.1667,234.125,83.9514,-86.0202,1011.7,-1.4,-1.1,yes,yes,yes,300234068768740,SVP-BA,ECCC,RCAF,North
2021-08-22T04:59:57Z,2021,5,0,234.2083,234.125,83.9514,-86.0202,1012.0,-1.4,-1.1,yes,yes,yes,300234068768740,SVP-BA,ECCC,RCAF,North
2021-08-22T06:00:00Z,2021,6,0,234.25,234.25,83.9538,-85.9682,1012.1,-1.4,-1.2,yes,yes,yes,300234068768740,SVP-BA,ECCC,RCAF,North
2021-08-22T07:00:02Z,2021,7,0,234.2917,234.25,83.9538,-85.9682,1011.8,-2.1,-2.0,yes,yes,yes,300234068768740,SVP-BA,ECCC,RCAF,North
2021-08-22T07:59:57Z,2021,8,0,234.3333,234.25,83.9538,-85.9682,1011.5,-1.3,-1.0,yes,yes,yes,300234068768740,SVP-BA,ECCC,RCAF,North
2021-08-22T09:00:00Z,2021,9,0,234.375,234.375,83.9586,-85.936,1011.4,-1.2,-1.1,yes,yes,yes,300234068768740,SVP-BA,ECCC,RCAF,North
2021-08-22T10:00:02Z,2021,10,0,234.4167,234.375,83.9586,-85.936,1011.3,-1.1,-1.0,yes,yes,yes,300234068768740,SVP-BA,ECCC,RCAF,North
2021-08-22T10:59:57Z,2021,11,0,234.4583,234.375,83.9586,-85.936,1011.0,-1.0,-0.9,yes,yes,yes,300234068768740,SVP-BA,ECCC,RCAF,North
2021-08-22T12:00:00Z,2021,12,0,234.5,234.5,83.9724,-85.8976,1010.8,-0.8,-0.6,yes,yes,yes,300234068768740,SVP-BA,ECCC,RCAF,North
2021-08-22T13:00:02Z,2021,13,0,234.5417,234.5,83.9724,-85.8976,1010.6,-0.5,-0.3,yes,yes,yes,300234068768740,SVP-BA,ECCC,RCAF,North
2021-08-22T13:59:57Z,2021,14,0,234.5833,234.5,83.9724,-85.8976,1010.4,-0.3,-0.2,yes,yes,yes,300234068768740,SVP-BA,ECCC,RCAF,North
2021-08-22T15:00:00Z,2021,15,0,234.625,234.625,83.9866,-85.8364,1010.2,-0.1,0.1,yes,yes,yes,300234068768740,SVP-BA,ECCC,RCAF,North
2021-08-22T16:00:02Z,2021,16,0,234.6667,234.625,83.9866,-85.8364,1009.9,0.0,0.2,yes,yes,yes,300234068768740,SVP-BA,ECCC,RCAF,North
2021-08-22T16:59:57Z,2021,17,0,234.7083,234.625,83.9866,-85.8364,1009.9,0.2,0.4,yes,yes,yes,300234068768740,SVP-BA,ECCC,RCAF,North
2021-08-22T18:00:00Z,2021,18,0,234.75,234.75,83.9958,-85.791,1009.5,0.4,0.6,yes,yes,yes,300234068768740,SVP-BA,ECCC,RCAF,North
2021-08-22T19:00:02Z,2021,19,0,234.7917,234.75,83.9958,-85.791,1009.4,0.5,0.6,yes,yes,yes,300234068768740,SVP-BA,ECCC,RCAF,North
2021-08-22T19:59:57Z,2021,20,0,234.8333,234.75,83.9958,-85.791,1009.4,0.6,0.7,yes,yes,yes,300234068768740,SVP-BA,ECCC,RCAF,North
2021-08-22T21:00:00Z,2021,21,0,234.875,234.875,84.0088,-85.7554,1009.5,0.7,1.0,yes,yes,yes,300234068768740,SVP-BA,ECCC,RCAF,North
2021-08-22T22:00:02Z,2021,22,0,234.9167,234.875,84.0088,-85.7554,1009.7,0.7,1.0,yes,yes,yes,300234068768740,SVP-BA,ECCC,RCAF,North
2021-08-22T22:59:57Z,2021,23,0,234.9583,234.875,84.0088,-85.7554,1010.1,0.7,1.0,yes,yes,yes,300234068768740,SVP-BA,ECCC,RCAF,North
2021-08-23T00:00:00Z,2021,0,0,235.0,235.0,84.0202,-85.6408,1010.3,0.7,0.9,yes,yes,yes,300234068768740,SVP-BA,ECCC,RCAF,North
2021-08-23T01:00:02Z,2021,1,0,235.0417,235.0,84.0202,-85.6408,1010.7,0.7,0.9,yes,yes,yes,300234068768740,SVP-BA,ECCC,RCAF,North
2021-08-23T01:59:57Z,2021,2,0,235.0833,235.0,84.0202,-85.6408,1011.0,0.7,0.9,yes,yes,yes,300234068768740,SVP-BA,ECCC,RCAF,North
2021-08-23T03:00:00Z,2021,3,0,235.125,235.125,84.024,-85.4946,1011.4,0.7,0.9,yes,yes,yes,300234068768740,SVP-BA,ECCC,RCAF,North
2021-08-23T04:00:02Z,2021,4,0,235.1667,235.125,84.024,-85.4946,1011.6,0.7,0.9,yes,yes,yes,300234068768740,SVP-BA,ECCC,RCAF,North
2021-08-23T04:59:57Z,2021,5,0,235.2083,235.125,84.024,-85.4946,1011.9,0.7,0.8,yes,yes,yes,300234068768740,SVP-BA,ECCC,RCAF,North
2021-08-23T06:00:00Z,2021,6,0,235.25,235.25,84.0244,-85.3258,1012.3,0.8,0.9,yes,yes,yes,300234068768740,SVP-BA,ECCC,RCAF,North
2021-08-23T07:00:02Z,2021,7,0,235.2917,235.25,84.0244,-85.3258,1012.4,0.9,1.3,yes,yes,yes,300234068768740,SVP-BA,ECCC,RCAF,North
2021-08-23T07:59:57Z,2021,8,0,235.3333,235.25,84.0244,-85.3258,1012.6,1.0,1.2,yes,yes,yes,300234068768740,SVP-BA,ECCC,RCAF,North
2021-08-23T09:00:00Z,2021,9,0,235.375,235.375,84.0238,-85.236,1012.7,1.0,1.2,yes,yes,yes,300234068768740,SVP-BA,ECCC,RCAF,North
2021-08-23T10:00:02Z,2021,10,0,235.4167,235.375,84.0238,-85.236,1012.9,0.9,1.1,yes,yes,yes,300234068768740,SVP-BA,ECCC,RCAF,North
2021-08-23T10:59:57Z,2021,11,0,235.4583,235.375,84.0238,-85.236,1012.8,1.0,1.1,yes,yes,yes,300234068768740,SVP-BA,ECCC,RCAF,North
2021-08-23T12:00:00Z,2021,12,0,235.5,235.5,84.028,-85.2274,1012.7,1.0,1.2,yes,yes,yes,300234068768740,SVP-BA,ECCC,RCAF,North
2021-08-23T13:00:02Z,2021,13,0,235.5417,235.5,84.028,-85.2274,1012.4,1.1,1.4,yes,yes,yes,300234068768740,SVP-BA,ECCC,RCAF,North
2021-08-23T13:59:57Z,2021,14,0,235.5833,235.5,84.028,-85.2274,1012.3,1.5,2.1,yes,yes,yes,300234068768740,SVP-BA,ECCC,RCAF,North
2021-08-23T15:00:00Z,2021,15,0,235.625,235.625,84.0374,-85.214,1012.1,1.6,2.1,yes,yes,yes,300234068768740,SVP-BA,ECCC,RCAF,North
2021-08-23T16:00:02Z,2021,16,0,235.6667,235.625,84.0374,-85.214,1011.8,1.5,1.6,yes,yes,yes,300234068768740,SVP-BA,ECCC,RCAF,North
2021-08-23T16:59:57Z,2021,17,0,235.7083,235.625,84.0374,-85.214,1011.5,2.0,2.1,yes,yes,yes,300234068768740,SVP-BA,ECCC,RCAF,North
2021-08-23T18:00:00Z,2021,18,0,235.75,235.75,84.0432,-85.1778,1011.0,1.9,2.1,yes,yes,yes,300234068768740,SVP-BA,ECCC,RCAF,North
2021-08-23T19:00:02Z,2021,19,0,235.7917,235.75,84.0432,-85.1778,1010.3,2.1,2.2,yes,yes,yes,300234068768740,SVP-BA,ECCC,RCAF,North
2021-08-23T19:59:57Z,2021,20,0,235.8333,235.75,84.0432,-85.1778,1010.1,2.9,1.8,yes,yes,yes,300234068768740,SVP-BA,ECCC,RCAF,North
2021-08-23T21:00:00Z,2021,21,0,235.875,235.875,84.043,-85.1842,1009.6,1.8,1.4,yes,yes,yes,300234068768740,SVP-BA,ECCC,RCAF,North
2021-08-23T22:00:02Z,2021,22,0,235.9167,235.875,84.043,-85.1842,1009.5,0.8,0.6,yes,yes,yes,300234068768740,SVP-BA,ECCC,RCAF,North
2021-08-23T22:59:57Z,2021,23,0,235.9583,235.875,84.043,-85.1842,1009.5,0.8,0.2,yes,yes,yes,300234068768740,SVP-BA,ECCC,RCAF,North
2021-08-24T00:00:00Z,2021,0,0,236.0,236.0,84.045,-85.1864,1009.4,0.5,0.1,yes,yes,yes,300234068768740,SVP-BA,ECCC,RCAF,North
2021-08-24T01:00:02Z,2021,1,0,236.0417,236.0,84.045,-85.1864,1009.4,0.2,0.0,yes,yes,yes,300234068768740,SVP-BA,ECCC,RCAF,North
2021-08-24T01:59:57Z,2021,2,0,236.0833,236.0,84.045,-85.1864,1009.3,0.0,-0.2,yes,yes,yes,300234068768740,SVP-BA,ECCC,RCAF,North
2021-08-24T03:00:00Z,2021,3,0,236.125,236.125,84.0484,-85.1406,1009.2,0.1,0.2,yes,yes,yes,300234068768740,SVP-BA,ECCC,RCAF,North
2021-08-24T04:00:02Z,2021,4,0,236.1667,236.125,84.0484,-85.1406,1009.1,-0.8,-0.9,yes,yes,yes,300234068768740,SVP-BA,ECCC,RCAF,North
2021-08-24T04:59:57Z,2021,5,0,236.2083,236.125,84.0484,-85.1406,1009.1,-1.3,-1.2,yes,yes,yes,300234068768740,SVP-BA,ECCC,RCAF,North
2021-08-24T06:00:00Z,2021,6,0,236.25,236.25,84.0492,-85.0942,1009.2,-0.7,-0.7,yes,yes,yes,300234068768740,SVP-BA,ECCC,RCAF,North
2021-08-24T07:00:02Z,2021,7,0,236.2917,236.25,84.0492,-85.0942,1009.4,-0.7,-0.6,yes,yes,yes,300234068768740,SVP-BA,ECCC,RCAF,North
2021-08-24T07:59:57Z,2021,8,0,236.3333,236.25,84.0492,-85.0942,1009.3,-0.5,-0.2,yes,yes,yes,300234068768740,SVP-BA,ECCC,RCAF,North
2021-08-24T09:00:00Z,2021,9,0,236.375,236.375,84.0488,-85.0774,1009.2,-0.6,0.0,yes,yes,yes,300234068768740,SVP-BA,ECCC,RCAF,North
2021-08-24T10:00:02Z,2021,10,0,236.4167,236.375,84.0488,-85.0774,1009.0,-0.3,0.3,yes,yes,yes,300234068768740,SVP-BA,ECCC,RCAF,North
2021-08-24T10:59:57Z,2021,11,0,236.4583,236.375,84.0488,-85.0774,1008.6,-0.5,1.7,yes,yes,yes,300234068768740,SVP-BA,ECCC,RCAF,North
2021-08-24T12:00:00Z,2021,12,0,236.5,236.5,84.0488,-85.0752,1008.3,-0.2,6.6,yes,yes,yes,300234068768740,SVP-BA,ECCC,RCAF,North
2021-08-24T13:00:02Z,2021,13,0,236.5417,236.5,84.0488,-85.0752,1007.7,0.5,5.7,yes,yes,yes,300234068768740,SVP-BA,ECCC,RCAF,North
2021-08-24T13:59:57Z,2021,14,0,236.5833,236.5,84.0488,-85.0752,1007.3,0.8,4.0,yes,yes,yes,300234068768740,SVP-BA,ECCC,RCAF,North
2021-08-24T15:00:00Z,2021,15,0,236.625,236.625,84.0494,-85.0804,1006.7,0.7,2.8,yes,yes,yes,300234068768740,SVP-BA,ECCC,RCAF,North
2021-08-24T16:00:02Z,2021,16,0,236.6667,236.625,84.0494,-85.0804,1006.1,0.3,1.3,yes,yes,yes,300234068768740,SVP-BA,ECCC,RCAF,North
2021-08-24T16:59:57Z,2021,17,0,236.7083,236.625,84.0494,-85.0804,1005.7,0.5,0.3,yes,yes,yes,300234068768740,SVP-BA,ECCC,RCAF,North
2021-08-24T18:00:00Z,2021,18,0,236.75,236.75,84.0492,-85.098,1005.1,0.4,0.2,yes,yes,yes,300234068768740,SVP-BA,ECCC,RCAF,North
2021-08-24T19:00:02Z,2021,19,0,236.7917,236.75,84.0492,-85.098,1004.6,2.1,0.2,yes,yes,yes,300234068768740,SVP-BA,ECCC,RCAF,North
2021-08-24T19:59:57Z,2021,20,0,236.8333,236.75,84.0492,-85.098,1004.1,2.1,-0.2,yes,yes,yes,300234068768740,SVP-BA,ECCC,RCAF,North
2021-08-24T21:00:00Z,2021,21,0,236.875,236.875,84.048,-85.1136,1003.5,1.2,-0.4,yes,yes,yes,300234068768740,SVP-BA,ECCC,RCAF,North
2021-08-24T22:00:02Z,2021,22,0,236.9167,236.875,84.048,-85.1136,1002.8,0.0,-0.8,yes,yes,yes,300234068768740,SVP-BA,ECCC,RCAF,North
2021-08-24T22:59:57Z,2021,23,0,236.9583,236.875,84.048,-85.1136,1002.1,-0.3,-1.1,yes,yes,yes,300234068768740,SVP-BA,ECCC,RCAF,North
2021-08-25T00:00:00Z,2021,0,0,237.0,237.0,84.0476,-85.113,1001.9,-0.7,-1.3,yes,yes,yes,300234068768740,SVP-BA,ECCC,RCAF,North
2021-08-25T01:00:02Z,2021,1,0,237.0417,237.0,84.0476,-85.113,1001.5,-1.6,-1.7,yes,yes,yes,300234068768740,SVP-BA,ECCC,RCAF,North
2021-08-25T01:59:57Z,2021,2,0,237.0833,237.0,84.0476,-85.113,1001.0,-2.1,-1.8,yes,yes,yes,300234068768740,SVP-BA,ECCC,RCAF,North
2021-08-25T03:00:00Z,2021,3,0,237.125,237.125,84.048,-85.1046,1000.6,-2.6,-2.3,yes,yes,yes,300234068768740,SVP-BA,ECCC,RCAF,North
2021-08-25T04:00:02Z,2021,4,0,237.1667,237.125,84.048,-85.1046,1000.3,-3.3,-2.6,yes,yes,yes,300234068768740,SVP-BA,ECCC,RCAF,North
2021-08-25T04:59:57Z,2021,5,0,237.2083,237.125,84.048,-85.1046,1000.0,-3.9,-3.0,yes,yes,yes,300234068768740,SVP-BA,ECCC,RCAF,North
2021-08-25T06:00:00Z,2021,6,0,237.25,237.25,84.0478,-85.1012,1000.0,-4.8,-3.4,yes,yes,yes,300234068768740,SVP-BA,ECCC,RCAF,North
2021-08-25T07:00:02Z,2021,7,0,237.2917,237.25,84.0478,-85.1012,999.9,-4.9,-1.6,yes,yes,yes,300234068768740,SVP-BA,ECCC,RCAF,North
2021-08-25T07:59:57Z,2021,8,0,237.3333,237.25,84.0478,-85.1012,1000.1,-4.8,-0.1,yes,yes,yes,300234068768740,SVP-BA,ECCC,RCAF,North
2021-08-25T09:00:00Z,2021,9,0,237.375,237.375,84.0466,-85.0886,1000.0,-3.7,-0.4,yes,yes,yes,300234068768740,SVP-BA,ECCC,RCAF,North
2021-08-25T10:00:02Z,2021,10,0,237.4167,237.375,84.0466,-85.0886,1000.0,-2.2,-0.7,yes,yes,yes,300234068768740,SVP-BA,ECCC,RCAF,North
2021-08-25T10:59:57Z,2021,11,0,237.4583,237.375,84.0466,-85.0886,1000.3,-2.0,-0.8,yes,yes,yes,300234068768740,SVP-BA,ECCC,RCAF,North
2021-08-25T12:00:00Z,2021,12,0,237.5,237.5,84.0444,-85.0522,1000.4,-1.8,-0.6,yes,yes,yes,300234068768740,SVP-BA,ECCC,RCAF,North
2021-08-25T13:00:02Z,2021,13,0,237.5417,237.5,84.0444,-85.0522,1000.6,-1.7,-0.4,yes,yes,yes,300234068768740,SVP-BA,ECCC,RCAF,North
2021-08-25T13:59:57Z,2021,14,0,237.5833,237.5,84.0444,-85.0522,1000.7,-1.0,-0.4,yes,yes,yes,300234068768740,SVP-BA,ECCC,RCAF,North
2021-08-25T15:00:00Z,2021,15,0,237.625,237.625,84.0414,-84.9942,1000.8,-0.7,0.2,yes,yes,yes,300234068768740,SVP-BA,ECCC,RCAF,North
2021-08-25T16:00:02Z,2021,16,0,237.6667,237.625,84.0414,-84.9942,1000.9,-0.4,0.2,yes,yes,yes,300234068768740,SVP-BA,ECCC,RCAF,North
2021-08-25T16:59:57Z,2021,17,0,237.7083,237.625,84.0414,-84.9942,1001.2,-0.4,0.1,yes,yes,yes,300234068768740,SVP-BA,ECCC,RCAF,North
2021-08-25T18:00:00Z,2021,18,0,237.75,237.75,84.0362,-84.9318,1001.3,0.1,0.5,yes,yes,yes,300234068768740,SVP-BA,ECCC,RCAF,North
2021-08-25T19:00:02Z,2021,19,0,237.7917,237.75,84.0362,-84.9318,1001.6,0.3,0.7,yes,yes,yes,300234068768740,SVP-BA,ECCC,RCAF,North
2021-08-25T19:59:57Z,2021,20,0,237.8333,237.75,84.0362,-84.9318,1001.8,0.2,0.6,yes,yes,yes,300234068768740,SVP-BA,ECCC,RCAF,North
2021-08-25T21:00:00Z,2021,21,0,237.875,237.875,84.0322,-84.9074,1002.1,0.2,0.6,yes,yes,yes,300234068768740,SVP-BA,ECCC,RCAF,North
2021-08-25T22:00:02Z,2021,22,0,237.9167,237.875,84.0322,-84.9074,1002.1,0.1,0.6,yes,yes,yes,300234068768740,SVP-BA,ECCC,RCAF,North
2021-08-25T22:59:57Z,2021,23,0,237.9583,237.875,84.0322,-84.9074,1002.2,-0.2,0.3,yes,yes,yes,300234068768740,SVP-BA,ECCC,RCAF,North
2021-08-26T00:00:00Z,2021,0,0,238.0,238.0,84.0318,-84.9052,1002.6,-0.2,0.3,yes,yes,yes,300234068768740,SVP-BA,ECCC,RCAF,North
2021-08-26T01:00:02Z,2021,1,0,238.0417,238.0,84.0318,-84.9052,1002.8,-0.6,-0.1,yes,yes,yes,300234068768740,SVP-BA,ECCC,RCAF,North
2021-08-26T01:59:57Z,2021,2,0,238.0833,238.0,84.0318,-84.9052,1002.9,-1.1,-0.6,yes,yes,yes,300234068768740,SVP-BA,ECCC,RCAF,North
2021-08-26T03:00:00Z,2021,3,0,238.125,238.125,84.0318,-84.8976,1003.1,-1.3,-0.7,yes,yes,yes,300234068768740,SVP-BA,ECCC,RCAF,North
2021-08-26T04:00:02Z,2021,4,0,238.1667,238.125,84.0318,-84.8976,1003.4,-1.3,-0.9,yes,yes,yes,300234068768740,SVP-BA,ECCC,RCAF,North
2021-08-26T04:59:57Z,2021,5,0,238.2083,238.125,84.0318,-84.8976,1003.4,-1.4,-0.9,yes,yes,yes,300234068768740,SVP-BA,ECCC,RCAF,North
2021-08-26T06:00:00Z,2021,6,0,238.25,238.25,84.0316,-84.8932,1003.7,-1.4,-0.9,yes,yes,yes,300234068768740,SVP-BA,ECCC,RCAF,North
2021-08-26T07:00:02Z,2021,7,0,238.2917,238.25,84.0316,-84.8932,1004.1,-1.5,-1.0,yes,yes,yes,300234068768740,SVP-BA,ECCC,RCAF,North
2021-08-26T07:59:57Z,2021,8,0,238.3333,238.25,84.0316,-84.8932,1004.7,-1.4,-0.9,yes,yes,yes,300234068768740,SVP-BA,ECCC,RCAF,North
2021-08-26T09:00:00Z,2021,9,0,238.375,238.375,84.0312,-84.8882,1005.1,-1.5,-0.8,yes,yes,yes,300234068768740,SVP-BA,ECCC,RCAF,North
2021-08-26T10:00:02Z,2021,10,0,238.4167,238.375,84.0312,-84.8882,1005.4,-1.7,-0.9,yes,yes,yes,300234068768740,SVP-BA,ECCC,RCAF,North
2021-08-26T10:59:57Z,2021,11,0,238.4583,238.375,84.0312,-84.8882,1006.0,-1.7,-1.0,yes,yes,yes,300234068768740,SVP-BA,ECCC,RCAF,North
2021-08-26T12:00:00Z,2021,12,0,238.5,238.5,84.0312,-84.883,1006.5,-1.8,-0.9,yes,yes,yes,300234068768740,SVP-BA,ECCC,RCAF,North
2021-08-26T13:00:02Z,2021,13,0,238.5417,238.5,84.0312,-84.883,1006.8,-1.6,-0.3,yes,yes,yes,300234068768740,SVP-BA,ECCC,RCAF,North
2021-08-26T13:59:57Z,2021,14,0,238.5833,238.5,84.0312,-84.883,1007.3,-1.0,-0.4,yes,yes,yes,300234068768740,SVP-BA,ECCC,RCAF,North
2021-08-26T15:00:00Z,2021,15,0,238.625,238.625,84.0316,-84.8676,1007.6,-0.6,0.1,yes,yes,yes,300234068768740,SVP-BA,ECCC,RCAF,North
2021-08-26T16:00:02Z,2021,16,0,238.6667,238.625,84.0316,-84.8676,1007.9,-0.7,-0.1,yes,yes,yes,300234068768740,SVP-BA,ECCC,RCAF,North
2021-08-26T16:59:57Z,2021,17,0,238.7083,238.625,84.0316,-84.8676,1008.5,-0.7,0.0,yes,yes,yes,300234068768740,SVP-BA,ECCC,RCAF,North
2021-08-26T18:00:00Z,2021,18,0,238.75,238.75,84.0316,-84.8488,1009.0,-0.5,0.2,yes,yes,yes,300234068768740,SVP-BA,ECCC,RCAF,North
2021-08-26T19:00:02Z,2021,19,0,238.7917,238.75,84.0316,-84.8488,1009.6,-0.4,0.4,yes,yes,yes,300234068768740,SVP-BA,ECCC,RCAF,North
2021-08-26T19:59:57Z,2021,20,0,238.8333,238.75,84.0316,-84.8488,1010.1,0.4,1.0,yes,yes,yes,300234068768740,SVP-BA,ECCC,RCAF,North
2021-08-26T21:00:00Z,2021,21,0,238.875,238.875,84.0314,-84.841,1010.9,0.0,0.6,yes,yes,yes,300234068768740,SVP-BA,ECCC,RCAF,North
2021-08-26T22:00:02Z,2021,22,0,238.9167,238.875,84.0314,-84.841,1011.2,-1.9,-0.5,yes,yes,yes,300234068768740,SVP-BA,ECCC,RCAF,North
2021-08-26T22:59:57Z,2021,23,0,238.9583,238.875,84.0314,-84.841,1011.6,-2.1,-1.6,yes,yes,yes,300234068768740,SVP-BA,ECCC,RCAF,North
2021-08-27T00:00:00Z,2021,0,0,239.0,239.0,84.0314,-84.8236,1012.2,-1.7,-1.3,yes,yes,yes,300234068768740,SVP-BA,ECCC,RCAF,North
2021-08-27T01:00:02Z,2021,1,0,239.0417,239.0,84.0314,-84.8236,1012.7,-2.3,-1.6,yes,yes,yes,300234068768740,SVP-BA,ECCC,RCAF,North
2021-08-27T01:59:57Z,2021,2,0,239.0833,239.0,84.0314,-84.8236,1013.1,-1.7,-1.2,yes,yes,yes,300234068768740,SVP-BA,ECCC,RCAF,North
2021-08-27T03:00:00Z,2021,3,0,239.125,239.125,84.0324,-84.7996,1013.3,-1.7,-1.1,yes,yes,yes,300234068768740,SVP-BA,ECCC,RCAF,North
2021-08-27T04:00:02Z,2021,4,0,239.1667,239.125,84.0324,-84.7996,1013.5,-1.6,-0.9,yes,yes,yes,300234068768740,SVP-BA,ECCC,RCAF,North
2021-08-27T04:59:57Z,2021,5,0,239.2083,239.125,84.0324,-84.7996,1013.9,-1.5,-1.2,yes,yes,yes,300234068768740,SVP-BA,ECCC,RCAF,North
2021-08-27T06:00:00Z,2021,6,0,239.25,239.25,84.0336,-84.7758,1014.6,-1.7,-1.2,yes,yes,yes,300234068768740,SVP-BA,ECCC,RCAF,North
2021-08-27T07:00:02Z,2021,7,0,239.2917,239.25,84.0336,-84.7758,1014.9,-1.9,-1.4,yes,yes,yes,300234068768740,SVP-BA,ECCC,RCAF,North
2021-08-27T07:59:57Z,2021,8,0,239.3333,239.25,84.0336,-84.7758,1015.1,-2.1,-1.7,yes,yes,yes,300234068768740,SVP-BA,ECCC,RCAF,North
2021-08-27T09:00:00Z,2021,9,0,239.375,239.375,84.0342,-84.7686,1015.4,-2.2,-1.7,yes,yes,yes,300234068768740,SVP-BA,ECCC,RCAF,North
2021-08-27T10:00:02Z,2021,10,0,239.4167,239.375,84.0342,-84.7686,1015.7,-2.4,-1.9,yes,yes,yes,300234068768740,SVP-BA,ECCC,RCAF,North
2021-08-27T10:59:57Z,2021,11,0,239.4583,239.375,84.0342,-84.7686,1016.0,-2.2,-2.0,yes,yes,yes,300234068768740,SVP-BA,ECCC,RCAF,North
2021-08-27T12:00:00Z,2021,12,0,239.5,239.5,84.0348,-84.7634,1015.9,-2.9,-2.3,yes,yes,yes,300234068768740,SVP-BA,ECCC,RCAF,North
2021-08-27T13:00:02Z,2021,13,0,239.5417,239.5,84.0348,-84.7634,1016.0,-2.3,-1.7,yes,yes,yes,300234068768740,SVP-BA,ECCC,RCAF,North
2021-08-27T13:59:57Z,2021,14,0,239.5833,239.5,84.0348,-84.7634,1016.1,-1.7,-1.0,yes,yes,yes,300234068768740,SVP-BA,ECCC,RCAF,North
2021-08-27T15:00:00Z,2021,15,0,239.625,239.625,84.0356,-84.7554,1016.0,-1.5,-0.7,yes,yes,yes,300234068768740,SVP-BA,ECCC,RCAF,North
2021-08-27T16:00:02Z,2021,16,0,239.6667,239.625,84.0356,-84.7554,1016.1,-1.4,-0.8,yes,yes,yes,300234068768740,SVP-BA,ECCC,RCAF,North
2021-08-27T16:59:57Z,2021,17,0,239.7083,239.625,84.0356,-84.7554,1016.1,-1.0,-0.8,yes,yes,yes,300234068768740,SVP-BA,ECCC,RCAF,North
2021-08-27T18:00:00Z,2021,18,0,239.75,239.75,84.0352,-84.7624,1015.8,-0.8,-0.6,yes,yes,yes,300234068768740,SVP-BA,ECCC,RCAF,North
2021-08-27T19:00:02Z,2021,19,0,239.7917,239.75,84.0352,-84.7624,1015.9,-0.7,-0.7,yes,yes,yes,300234068768740,SVP-BA,ECCC,RCAF,North
2021-08-27T19:59:57Z,2021,20,0,239.8333,239.75,84.0352,-84.7624,1015.9,-0.9,-1.0,yes,yes,yes,300234068768740,SVP-BA,ECCC,RCAF,North
2021-08-27T21:00:00Z,2021,21,0,239.875,239.875,84.0334,-84.8096,1016.0,-1.1,-1.3,yes,yes,yes,300234068768740,SVP-BA,ECCC,RCAF,North
2021-08-27T22:00:02Z,2021,22,0,239.9167,239.875,84.0334,-84.8096,1015.8,-0.9,-0.9,yes,yes,yes,300234068768740,SVP-BA,ECCC,RCAF,North
2021-08-27T22:59:57Z,2021,23,0,239.9583,239.875,84.0334,-84.8096,1015.7,-0.9,-0.8,yes,yes,yes,300234068768740,SVP-BA,ECCC,RCAF,North
2021-08-28T00:00:00Z,2021,0,0,240.0,240.0,84.033,-84.873,1015.4,-0.9,-0.9,yes,yes,yes,300234068768740,SVP-BA,ECCC,RCAF,North
2021-08-28T01:00:02Z,2021,1,0,240.0417,240.0,84.033,-84.873,1015.2,-0.9,-0.9,yes,yes,yes,300234068768740,SVP-BA,ECCC,RCAF,North
2021-08-28T01:59:57Z,2021,2,0,240.0833,240.0,84.033,-84.873,1015.0,-1.1,-1.0,yes,yes,yes,300234068768740,SVP-BA,ECCC,RCAF,North
2021-08-28T03:00:00Z,2021,3,0,240.125,240.125,84.035,-84.9186,1014.8,-1.1,-1.0,yes,yes,yes,300234068768740,SVP-BA,ECCC,RCAF,North
2021-08-28T04:00:02Z,2021,4,0,240.1667,240.125,84.035,-84.9186,1014.4,-1.3,-1.2,yes,yes,yes,300234068768740,SVP-BA,ECCC,RCAF,North
2021-08-28T04:59:57Z,2021,5,0,240.2083,240.125,84.035,-84.9186,1014.4,-1.5,-1.5,yes,yes,yes,300234068768740,SVP-BA,ECCC,RCAF,North
2021-08-28T06:00:00Z,2021,6,0,240.25,240.25,84.0386,-84.9644,1014.1,-1.7,-1.7,yes,yes,yes,300234068768740,SVP-BA,ECCC,RCAF,North
2021-08-28T07:00:02Z,2021,7,0,240.2917,240.25,84.0386,-84.9644,1013.9,-2.1,-2.0,yes,yes,yes,300234068768740,SVP-BA,ECCC,RCAF,North
2021-08-28T07:59:57Z,2021,8,0,240.3333,240.25,84.0386,-84.9644,1014.0,-1.9,-1.8,yes,yes,yes,300234068768740,SVP-BA,ECCC,RCAF,North
2021-08-28T09:00:00Z,2021,9,0,240.375,240.375,84.043,-85.0094,1013.8,-1.4,-1.4,yes,yes,yes,300234068768740,SVP-BA,ECCC,RCAF,North
2021-08-28T10:00:02Z,2021,10,0,240.4167,240.375,84.043,-85.0094,1014.1,-1.3,-1.2,yes,yes,yes,300234068768740,SVP-BA,ECCC,RCAF,North
2021-08-28T10:59:57Z,2021,11,0,240.4583,240.375,84.043,-85.0094,1013.9,-1.2,-1.1,yes,yes,yes,300234068768740,SVP-BA,ECCC,RCAF,North
2021-08-28T12:00:00Z,2021,12,0,240.5,240.5,84.0496,-85.0426,1013.8,-1.2,-1.2,yes,yes,yes,300234068768740,SVP-BA,ECCC,RCAF,North